Home > Time Zones > World Clock > Weather > Iran > Gorgan > Past weeks

Flag for Iran Weather past 2 weeks in Gorgan, Iran

Now
54 °F

Sunny.


Feels Like: 50 °F
Forecast: 37 / 53 °F
Wind: 12 mph from Northeast

Location: Gorgan Airport

Current Time: Jan 26, 2015 at 2:34:41 PM

Latest Report: Jan 26, 2015 at 1:30 PM


Visibility: 10 mi

Pressure: 30.36 "Hg

Humidity: 54%

Dew point: 37 °F

Location of GorganLocation

Historic Weather in Gorgan — Graph

°F

Gorgan temperature yesterday

Maximum temperature yesterday: 52 °F (at 3:30 PM)
Minimum temperature yesterday: 27 °F (at 6:30 AM)
Average temperature yesterday: 38 °F

Past Weeks' High & Low Weather Summary

 TemperatureHumidityPressure
High64 °F (Jan 13, 1:00 PM)100% (Jan 12, 6:30 AM)30.57 "Hg (Jan 12, 6:30 AM)
Low25 °F (Jan 21, 7:30 AM)37% (Jan 13, 2:00 PM)30.01 "Hg (Jan 16, 3:30 AM)
Average43 °F82%30.32 "Hg
* Reported Jan 11 1:30 PM — Jan 26 1:30 PM, Gorgan, Weather by CustomWeather, © 2014

Note: Actual official high and low records may vary slightly from our data, if they occured in-between our weather recording intervals... More about our weather records

Advertising

Gorgan weather history for previous 24 hours

 ConditionsComfort  
Time TempWeatherWind HumidityBarometerVisibility
1:30 PM
Jan 26
54 °FSunny.12 mph54%30.36 "Hg10 mi
1:00 PM52 °FSunny.9 mph58%30.36 "Hg10 mi
12:30 PM52 °FSunny.9 mph62%30.39 "Hg10 mi
11:30 AM50 °FSunny.7 mph67%30.42 "Hg10 mi
10:30 AM45 °FSunny.5 mph76%30.45 "Hg10 mi
10:00 AM45 °FSunny.5 mph76%30.45 "Hg10 mi
9:30 AM41 °FSunny.No wind81%30.48 "Hg10 mi
8:30 AM34 °FSunny.No wind93%30.48 "Hg10 mi
7:30 AM27 °FSunny.No wind93%30.48 "Hg10 mi
6:30 AM28 °FClear.No wind100%30.45 "Hg10 mi
5:30 AM30 °FClear.7 mph86%30.15 "Hg10 mi
4:30 AM30 °FClear.No wind100%30.48 "Hg10 mi
3:30 AM32 °FClear.No wind93%30.48 "Hg10 mi
2:30 AM34 °FClear.9 mph93%30.48 "Hg10 mi
12:30 AM34 °FClear.No wind93%30.48 "Hg10 mi
11:30 PM
Jan 25
36 °FClear.12 mph93%30.51 "Hg10 mi
10:30 PM39 °FClear.12 mph93%30.48 "Hg10 mi
10:00 PM39 °FClear.12 mph93%30.48 "Hg10 mi
9:30 PM37 °FClear.12 mph93%30.48 "Hg10 mi
9:00 PM39 °FClear.12 mph93%30.48 "Hg10 mi
8:30 PM39 °FClear.12 mph93%30.48 "Hg10 mi
7:30 PM41 °FClear.12 mph93%30.48 "Hg10 mi
6:30 PM41 °FPassing clouds.9 mph93%30.45 "HgN/A
5:30 PM45 °FPassing clouds.12 mph81%30.42 "HgN/A
4:30 PM50 °FPassing clouds.7 mph67%30.39 "HgN/A
3:30 PM52 °FPassing clouds.7 mph58%30.39 "HgN/A
2:30 PM50 °FPassing clouds.No wind67%30.36 "HgN/A
Weather by CustomWeather, © 2014

See weather overviewHow to use our weather pages